Left ArrowRight Arrow

32.19382, -80.73816

Hourly Observations for May 8, 2016

Temp ( °F °C ) Dew Point ( °F °C ) Humidity (%) Winds ( mph kmh ) Pressure ( in mb ) Visibility ( mi km ) Precip ( " mm )
12:15 am 00:15 Clear 70 21 54 12 57 57 SW 8 13 29.94 1014 10 16 0.00 0.03
12:35 am 00:35 Clear 70 21 54 12 57 57 SW 9 15 29.94 1014 10 16 0.00 0.03
12:55 am 00:55 Clear 70 21 52 11 53 53 SW 8 13 29.94 1014 10 16 0.00 0.03
1:15 am 01:15 Clear 70 21 52 11 53 53 SW 8 13 29.94 1014 10 16 0.00 0.03
1:35 am 01:35 Clear 70 21 52 11 53 53 WSW 9 15 29.94 1014 10 16 0.00 0.03
1:55 am 01:55 Clear 70 21 52 11 53 53 SW 7 11 29.94 1014 10 16 0.00 0.03
2:15 am 02:15 Clear 70 21 52 11 53 53 SW 7 11 29.94 1014 10 16 0.00 0.03
2:35 am 02:35 Clear 70 21 52 11 53 53 SW 9 15 29.94 1014 10 16 0.00 0.03
2:55 am 02:55 Clear 70 21 52 11 53 53 SW 9 15 29.94 1014 10 16 0.00 0.03
3:15 am 03:15 Clear 68 20 52 11 56 56 SW 8 13 29.94 1014 10 16 0.00 0.03
3:35 am 03:35 Clear 68 20 54 12 60 60 WSW 6 9 29.94 1014 10 16 0.00 0.03
3:55 am 03:55 Clear 68 20 54 12 60 60 WSW 6 9 29.94 1014 10 16 0.00 0.03
4:15 am 04:15 Clear 66 19 54 12 64 64 SW 7 11 29.94 1014 10 16 0.00 0.03
4:35 am 04:35 Clear 66 19 54 12 64 64 W 8 13 29.94 1014 10 16 0.00 0.03
4:55 am 04:55 Clear 66 19 54 12 64 64 W 7 11 29.94 1014 10 16 0.00 0.03
5:15 am 05:15 Clear 66 19 54 12 64 64 WSW 6 9 29.94 1014 10 16 0.00 0.03
5:35 am 05:35 Clear 66 19 54 12 64 64 WSW 7 11 29.94 1014 10 16 0.00 0.03
6:50 am 06:50 Mostly Sunny 64 18 54 12 68 68 WSW 6 9 29.97 1015 10 16 N/A
7:50 am 07:50 Mostly Sunny 68 20 55 13 64 64 WSW 6 9 30.00 1016 10 16 N/A
8:50 am 08:50 Mostly Sunny 75 24 54 12 47 47 WSW 9 15 30.00 1016 10 16 N/A
9:50 am 09:50 Mostly Sunny 75 24 54 12 47 47 undefined N/A 30.00 1016 10 16 N/A
10:55 am 10:55 Mostly Sunny 82 28 57 14 42 42 WNW 12 19 30.00 1016 10 16 N/A
11:50 am 11:50 Mostly Sunny 88 31 57 14 35 35 W 10 17 30.00 1016 10 16 N/A
12:50 pm 12:50 Mostly Sunny 88 31 57 14 35 35 W 9 15 30.00 1016 10 16 N/A
1:50 pm 13:50 Mostly Sunny 91 33 55 13 30 30 W 9 15 30.00 1016 10 16 N/A
2:50 pm 14:50 Mostly Sunny 93 34 52 11 24 24 W 10 17 29.97 1015 10 16 N/A
3:50 pm 15:50 Mostly Sunny 93 34 52 11 24 24 W 12 19 29.97 1015 10 16 N/A
4:50 pm 16:50 Mostly Sunny 90 32 63 17 41 41 S 9 15 29.97 1015 10 16 N/A
5:50 pm 17:50 Mostly Sunny 86 30 59 15 40 40 S 9 15 29.97 1015 10 16 N/A
6:50 pm 18:50 Mostly Sunny 82 28 63 17 51 51 SSW 8 13 29.97 1015 10 16 N/A
7:50 pm 19:50 Mostly Sunny 77 25 63 17 61 61 S 10 17 29.97 1015 10 16 N/A
8:15 pm 20:15 Clear 75 24 63 17 65 65 S 9 15 29.97 1015 10 16 0.00 0.03
8:35 pm 20:35 Clear 75 24 64 18 69 69 S 12 19 29.97 1015 10 16 0.00 0.03
8:50 pm 20:50 Mostly Clear 75 24 63 17 65 65 S 9 15 30.00 1016 10 16 N/A
8:55 pm 20:55 Clear 75 24 63 17 65 65 S 10 17 30.00 1016 10 16 0.00 0.03
9:15 pm 21:15 Clear 73 23 64 18 74 74 S 12 19 30.00 1016 10 16 0.00 0.03
9:35 pm 21:35 Clear 75 24 64 18 69 69 S 12 19 30.00 1016 10 16 0.00 0.03
9:55 pm 21:55 Clear 73 23 64 18 74 74 S 8 13 30.00 1016 10 16 0.00 0.03
10:15 pm 22:15 Clear 73 23 64 18 74 74 SSW 8 13 30.03 1017 10 16 0.00 0.03
10:35 pm 22:35 Clear 73 23 63 17 69 69 S 8 13 30.03 1017 10 16 0.00 0.03
10:55 pm 22:55 Clear 73 23 63 17 69 69 S 9 15 30.03 1017 10 16 0.00 0.03
11:15 pm 23:15 Clear 73 23 64 18 74 74 S 8 13 30.06 1018 10 16 0.00 0.03
11:35 pm 23:35 Clear 73 23 63 17 69 69 S 9 15 30.06 1018 10 16 0.00 0.03
11:55 pm 23:55 Clear 73 23 63 17 69 69 SSW 9 15 30.06 1018 10 16 0.00 0.03

Powered by Vaisala Xweather